Weather History for PAWD - May, 2014

Change the Weather History Date:

Friday, May 30, 2014

  Actual Average Record
Temperature  
Mean Temperature 48 °F -  
Max Temperature 51 °F 54 °F 78 °F (2015)
Min Temperature 46 °F 42 °F 34 °F (1973)
Degree Days  
Heating Degree Days 16    
Moisture  
Dew Point 45 °F    
Average Humidity 91    
Maximum Humidity 96    
Minimum Humidity 83    
Precipitation  
Precipitation 0.60 in - - ()
Sea Level Pressure  
Sea Level Pressure 29.76 in    
Wind  
Wind Speed 2 mph (South)    
Max Wind Speed 17 mph    
Max Gust Speed 23 mph    
Visibility 6 miles    
Events Rain    
Averages and records for this station are not official NWS values.
T = Trace of Precipitation, MM = Missing Value Source: NWS Daily Summary

Daily Weather History Graph

Daily Weather History Graph

Search for Another Location

Airport or City:

Trip Planner

Search our weather history database for the weather conditions in past years. The results will help you decide how hot, cold, wet, or windy it might be!

Date:

Astronomy

May. 30, 2014 Rise Set
Actual Time 4:48 AM AKDT 11:03 PM AKDT
Civil Twilight 3:26 AM AKDT 12:27 AM AKDT
Nautical Twilight Sun does not set Sun does not set
Astronomical Twilight Sun does not set Sun does not set
Moon 7:02 AM AKDT (5/30) No Moon Set
Length of Visible Light 21h 00m
Length of Day
18h 15m
Waxing Crescent, 4% of the Moon is Illuminated
May 30
Waxing Crescent
Jun 5
First Quarter
Jun 12
Full
Jun 19
Last Quarter
Jun 27
New

Hourly Weather History & Observations

Time (AKDT) Temp. Dew Point Humidity Pressure Visibility Wind Dir Wind Speed Gust Speed Precip Events Conditions
12:53 AM 48.0 °F 45.0 °F 89% 29.94 in 10.0 mi East 4.6 mph - 0.00 in Rain Light Rain
12:59 AM 48.0 °F 45.0 °F 89% 29.93 in 10.0 mi Calm Calm - 0.00 in Rain Light Rain
1:22 AM 48.0 °F 45.0 °F 89% 29.93 in 10.0 mi Calm Calm - 0.00 in Rain Light Rain
1:32 AM 48.0 °F 45.0 °F 89% 29.93 in 10.0 mi Calm Calm - 0.00 in Rain Light Rain
1:40 AM 48.9 °F 45.0 °F 86% 29.92 in 10.0 mi Calm Calm - 0.00 in Rain Light Rain
1:53 AM 48.0 °F 45.0 °F 89% 29.92 in 10.0 mi Calm Calm - 0.00 in Rain Light Rain
2:53 AM 48.0 °F 46.0 °F 93% 29.90 in 10.0 mi Calm Calm - 0.00 in Rain Light Rain
3:03 AM 48.0 °F 46.0 °F 93% 29.90 in 10.0 mi Calm Calm - 0.00 in Rain Light Rain
3:53 AM 46.9 °F 45.0 °F 93% 29.88 in 10.0 mi Calm Calm - 0.00 in Rain Light Rain
4:01 AM 46.9 °F 45.0 °F 93% 29.88 in 10.0 mi Calm Calm - 0.00 in Rain Light Rain
4:46 AM 46.9 °F 45.0 °F 93% 29.87 in 1.8 mi Calm Calm - 0.00 in Rain Light Rain
4:53 AM 46.9 °F 45.0 °F 93% 29.86 in 3.0 mi Calm Calm - 0.00 in Rain Light Rain
5:14 AM 46.0 °F 45.0 °F 96% 29.85 in 2.5 mi Calm Calm - 0.00 in Rain Light Rain
5:26 AM 46.9 °F 45.0 °F 93% 29.85 in 8.0 mi Calm Calm - 0.00 in Rain Light Rain
5:45 AM 46.9 °F 45.0 °F 93% 29.84 in 10.0 mi Calm Calm - 0.00 in Rain Light Rain
5:53 AM 46.0 °F 44.1 °F 93% 29.84 in 6.0 mi Calm Calm - 0.00 in Rain Light Rain
6:20 AM 46.0 °F 44.1 °F 93% 29.83 in 1.8 mi Calm Calm - 0.00 in Rain Light Rain
6:28 AM 46.9 °F 45.0 °F 93% 29.82 in 2.5 mi Calm Calm - 0.00 in Rain Light Rain
6:35 AM 46.9 °F 45.0 °F 93% 29.82 in 6.0 mi Calm Calm - 0.00 in Rain Light Rain
6:53 AM 46.9 °F 45.0 °F 93% 29.81 in 7.0 mi Calm Calm - 0.00 in Rain Light Rain
7:53 AM 48.0 °F 46.0 °F 93% 29.80 in 6.0 mi Calm Calm - 0.00 in Rain Light Rain
8:53 AM 48.0 °F 46.0 °F 93% 29.78 in 7.0 mi Calm Calm - 0.00 in Rain Light Rain
9:53 AM 48.9 °F 46.0 °F 90% 29.76 in 5.0 mi Variable 3.5 mph - 0.00 in Rain Light Rain
10:11 AM 48.0 °F 45.0 °F 89% 29.75 in 7.0 mi ESE 3.5 mph - 0.00 in Rain Light Rain
10:45 AM 48.9 °F 46.0 °F 90% 29.74 in 6.0 mi SE 3.5 mph - 0.00 in Rain Light Rain
10:53 AM 48.9 °F 46.9 °F 93% 29.74 in 6.0 mi Calm Calm - 0.00 in Rain Light Rain
11:53 AM 50.0 °F 46.9 °F 89% 29.72 in 5.0 mi Calm Calm - 0.02 in Rain Rain
1:53 PM 51.1 °F 46.9 °F 86% 29.69 in 4.0 mi SSW 12.7 mph - 0.07 in Rain Rain
2:53 PM 50.0 °F 46.0 °F 86% 29.69 in 2.0 mi SSW 13.8 mph 23.0 mph 0.12 in Rain Rain
3:07 PM 50.0 °F 46.0 °F 86% 29.68 in 3.0 mi SSW 17.3 mph - 0.03 in Rain Rain
3:16 PM 50.0 °F 46.0 °F 86% 29.69 in 2.5 mi SSW 16.1 mph - 0.05 in Rain Rain
3:53 PM 48.0 °F 44.1 °F 86% 29.69 in 2.0 mi SSW 15.0 mph 23.0 mph 0.16 in Rain Rain
4:04 PM 48.9 °F 44.1 °F 83% 29.68 in 4.0 mi SSW 16.1 mph - 0.01 in Rain Rain
4:53 PM 48.9 °F 44.1 °F 83% 29.65 in 7.0 mi Calm Calm - 0.07 in Rain Light Rain
5:53 PM 48.0 °F 45.0 °F 89% 29.64 in 4.0 mi Calm Calm - 0.02 in Rain Rain
6:53 PM 48.9 °F 46.0 °F 90% 29.62 in 5.0 mi Calm Calm - 0.01 in Rain Light Rain
7:53 PM 48.0 °F 45.0 °F 89% 29.60 in 5.0 mi South 3.5 mph - 0.01 in Rain Light Rain
8:53 PM 46.9 °F 45.0 °F 93% 29.59 in 4.0 mi Calm Calm - 0.03 in Rain Light Rain
9:39 PM 46.9 °F 45.0 °F 93% 29.57 in 5.0 mi Calm Calm - 0.03 in Rain Light Rain
9:53 PM 46.9 °F 45.0 °F 93% 29.57 in 9.0 mi Calm Calm - 0.03 in Rain Light Rain
10:53 PM 46.0 °F 44.1 °F 93% 29.55 in 6.0 mi Calm Calm - 0.01 in Rain Light Rain
11:51 PM 46.4 °F 44.6 °F 93% 29.54 in 5.0 mi Calm Calm - 0.05 in Rain Light Rain
11:53 PM 46.9 °F 45.0 °F 93% 29.55 in 6.0 mi Calm Calm - 0.05 in Rain Light Rain